Powrót do katalogu

SL-8 DEB

AktywnyPO
NORAD 29284·DEBRIS·🇷🇺 Russia

Wystrzelony Dec 17, 1981 z Plesetsk Cosmodrome

Loading…

Następne Przeloty (najbliższe 24 godziny)

TLE

ŚwieżeSource: Space-Track

Epoka: Sep 14, 2026, 08:04 UTC

1 29284U 81120N   26257.33621734 -.00000052  00000-0 -73498-3 0  9991
2 29284  82.9540  89.2242 0035732 346.8790 188.5334 12.02519464557237

Śledź SL-8 DEB w czasie rzeczywistym z AllMySat

Download on the App Store